Regional Weather Roundup
Issued by NWS Grand Forks, ND

Home | Current Version | Previous Version | Text Only | Print | Product List | Glossary Off
Versions: 1 2 3 4 5 6 7 8 9 10 11 12 13 14 15 16 17 18 19 20 21 22 23 24 25 26 27 28 29 30 31 32 33 34 35 36 37 38 39 40 41 42 43 44 45 46 47 48 49 50

000
ASUS43 KFGF 191810
RWRFGF
PRAIRIE TO PINES  WEATHER ROUNDUP
NATIONAL WEATHER SERVICE EASTERN NORTH DAKOTA/GRAND FORKS ND
100 PM CDT TUE SEP 19 2017

 **SATELLITE DATA USED TO AUGMENT SKY COVER AT AUTOMATED STATIONS**
 *****  WEATHER ACROSS EASTERN NORTH DAKOTA  *****

CITY           SKY/WX    TMP DP  RH WIND       PRES   REMARKS
GRAND FORKS    CLOUDY    69  63  81 SE20G29   29.63F
6HR MIN TEMP:  59; 6HR MAX TEMP:  69;

GRAND FRKS AFB CLOUDY    65  63  94 SE16G23   29.62F
DEVILS LAKE    CLOUDY    64  61  90 SE25      29.57S
6HR MIN TEMP:  58; 6HR MAX TEMP:  64; 6HR PCP: TRACE;

FARGO          FAIR      77  63  61 SE18G29   29.63F
WAHPETON ARPT  MOCLDY    72  61  68 SE17G30   29.67F
$$

 ***** WEATHER ACROSS CENTRAL AND WESTERN NORTH DAKOTA  *****

CITY           SKY/WX    TMP DP  RH WIND       PRES   REMARKS
BISMARCK       FAIR      70  43  37 S20       29.49R
6HR MIN TEMP:  62; 6HR MAX TEMP:  70; 6HR PCP:  0.03;

MINOT          CLOUDY    68  60  75 SE14G23   29.45R
6HR MIN TEMP:  55; 6HR MAX TEMP:  68; 6HR PCP: TRACE;

JAMESTOWN      NOT AVBL
MINOT AFB      FAIR      67  60  79 S16G22    29.44R
GARRISON         N/A     67  62  84 S14       29.46S
WILLISTON      PTSUNNY   62  53  72 W12       29.46S
6HR MIN TEMP:  56; 6HR MAX TEMP:  62; 6HR PCP:  0.02;

DICKINSON      PTSUNNY   59  51  75 W14       29.51R
6HR MIN TEMP:  57; 6HR MAX TEMP:  62; 6HR PCP: TRACE;

HETTINGER      PTSUNNY   62  48  60 W12       29.55R
6HR MIN TEMP:  60; 6HR MAX TEMP:  65;

$$

 *****  OTHER AIRPORT OBSERVATIONS IN OUR AREA  *****

CITY           SKY/WX    TMP DP  RH WIND       PRES   REMARKS
WALHALLA       FAIR     N/A N/A N/A SE20G26   29.61F FOG
GRAFTON AIRPOR CLOUDY    66  63  88 SE21      29.65F
VALLEY CITY AR CLOUDY    70  70 100 SE24G35   29.61F
CANDO          CLOUDY    63  63 100 SE21G26   29.57F
CAVALIER APRT  CLOUDY    61  61 100 SE12G21   29.63F FOG
GWINNER        MOCLDY    72  64  78 SE16G30   29.60F
SHEYENNE NWR     N/A     70  66  88 SE17      29.95S
ROLLA          CLOUDY    61  61 100 SE20G26   29.56F FOG
 ***** THE ABOVE OBSERVATIONS ARE NON NWS ARE NOT QUALITY
       CONTROLLED AND MAY MIS-REPORT RAIN FOR SNOW...
$$

  *****  WEATHER ACROSS NORTHERN MINNESOTA  *****

CITY           SKY/WX    TMP DP  RH WIND       PRES   REMARKS
FLAG ISLAND    CLOUDY    57  55  94 SE6       29.79F
WARROAD        PTSUNNY   63  59  88 E12       29.77F
ROSEAU           N/A     64  57  77 SE16      29.75F
HALLOCK        FAIR      70  61  73 SE16G23   29.66F
THF RVR FALLS  FAIR      71  59  65 SE22G30   29.71F
6HR MIN TEMP:  56; 6HR MAX TEMP:  71;

BAUDETTE       CLOUDY    62  58  86 SE12      29.80F
6HR MIN TEMP:  53; 6HR MAX TEMP:  62;

WASKISH        CLOUDY    66  61  82 SE10G16   29.80S
CROOKSTON      FAIR      73  61  64 S24       29.66F
STEPHEN NDAWN    N/A     72  61  68 SE15        N/A
GREENBUSH NDAW   N/A     72  61  68 SE15        N/A
$$
  *****  WEATHER ACROSS CENTRAL AND WEST MINNESOTA  *****

CITY           SKY/WX    TMP DP  RH WIND       PRES   REMARKS
FOSSTON        FAIR      70  59  68 SE16G23   29.73S
BEMIDJI        CLOUDY    62  59  90 SE14G21   29.78F
6HR MIN TEMP:  54; 6HR MAX TEMP:  62;

PARK RAPIDS    FAIR      70  60  70 SE24G30   29.77F
ELBOW LAKE     MOCLDY    70  64  79 E16G28    29.72F HAZE
WADENA         PTSUNNY   66  61  82 SE18G25   29.77S
DETROIT LAKES  FAIR      70  61  73 S17G24    29.74S
MOORHEAD       FAIR      75  61  60 SE28G35   29.66F
FERGUS FALLS   FAIR      73  66  78 SE17G26   29.70F
MORRIS MN      FAIR      72  64  78 SE22G30   29.71F
STAPLES        PTSUNNY   66  61  82 SE13G22   29.79F
$$
  *****  WEATHER ELSEWHERE ACROSS MINNESOTA  *****

CITY           SKY/WX    TMP DP  RH WIND       PRES   REMARKS
DULUTH         FAIR      66  59  78 SE13      29.92F
6HR MIN TEMP:  55; 6HR MAX TEMP:  66;

INTRNTL FALLS  CLOUDY    64  57  78 SE10      29.85F
6HR MIN TEMP:  54; 6HR MAX TEMP:  64;

ELY            CLOUDY    64  55  72 SE10      29.93F
CLOQUET        PTSUNNY   66  57  72 SE7       29.91F
WHEATON        CLOUDY    72  63  73 SE26G32   29.69F
BRAINERD       CLOUDY    66  61  84 SE12G20   29.82F
6HR MIN TEMP:  56; 6HR MAX TEMP:  66;

HIBBING        CLOUDY    65  59  81 SE10      29.89F
6HR MIN TEMP:  53; 6HR MAX TEMP:  65;

ALEXANDRIA     CLOUDY    68  63  84 SE18G29   29.78F
6HR MIN TEMP:  59; 6HR MAX TEMP:  68;

SAINT CLOUD    FAIR      74  64  71 SE15G23   29.82F
6HR MIN TEMP:  57; 6HR MAX TEMP:  74;

MINNEAPOLIS    PTSUNNY   75  65  70 SE15      29.86F
6HR MIN TEMP:  60; 6HR MAX TEMP:  76;

$$

  *****  WEATHER ACROSS SOUTH DAKOTA  *****

CITY           SKY/WX    TMP DP  RH WIND       PRES   REMARKS
SIOUX FALLS    CLOUDY    72  69  90 SE18G28   29.69F
6HR MIN TEMP:  66; 6HR MAX TEMP:  72; 6HR PCP: TRACE;

BROOKINGS      CLOUDY    69  65  86 SE20G29   29.69F
WATERTOWN      CLOUDY    68  65  90 SE22G35   29.66F
6HR MIN TEMP:  64; 6HR MAX TEMP:  69;

HURON          PTSUNNY   73  66  78 SE25G36   29.56F
6HR MIN TEMP:  67; 6HR MAX TEMP:  75;

SISSETON         N/A     72  65  78 SE23G36   29.64F
ABERDEEN       FAIR      75  65  70 SE24G37   29.54F
6HR MIN TEMP:  66; 6HR MAX TEMP:  77;

MITCHELL       FAIR      77  67  71 SE21G33   29.59F
PIERRE         FAIR      73  63  70 SE20      29.47F
6HR MIN TEMP:  61; 6HR MAX TEMP:  73;

MOBRIDGE       FAIR      73  65  75 S17G24    29.47S
RAPID CITY     SUNNY     70  45  40 N16       29.52F
$$

  *****  SOME WEATHER IN NEARBY STATES *****

CITY           SKY/WX    TMP DP  RH WIND       PRES   REMARKS
GLASGOW MT     CLOUDY    56  39  53 W22       29.54R
6HR MIN TEMP:  49; 6HR MAX TEMP:  56; 6HR PCP:  0.02;

GREAT FALLS MT FAIR      55  28  35 SW15G28   29.63F
6HR MIN TEMP:  41; 6HR MAX TEMP:  56;

CHEYENNE WY    FAIR      75  14  10 S12G24    29.71F
6HR MIN TEMP:  48; 6HR MAX TEMP:  76;

SCOTTSBLUFF NE FAIR      66  52  60 E8        29.59F
6HR MIN TEMP:  53; 6HR MAX TEMP:  66;

OMAHA NE       FAIR      84  68  58 SE22      29.73F
6HR MIN TEMP:  68; 6HR MAX TEMP:  84;

DES MOINES IA  PTSUNNY   78  68  71 S12       29.86F
6HR MIN TEMP:  62; 6HR MAX TEMP:  79;

DAVENPORT IA   FAIR      76  64  66 E10       29.97S
6HR MIN TEMP:  60; 6HR MAX TEMP:  76;

CHICAGO IL     PTSUNNY   76  64  66 NE7       29.94F
6HR MIN TEMP:  66; 6HR MAX TEMP:  78; 6HR PCP: TRACE;

EAU CLAIRE WI  FAIR      74  60  61 SE14      29.92F
6HR MIN TEMP:  57; 6HR MAX TEMP:  75;

LA CROSSE WI   FAIR      77  64  64 SE5       29.91F
6HR MIN TEMP:  59; 6HR MAX TEMP:  79;

$$

  *****  SOME NATIONAL WEATHER *****

CITY           SKY/WX    TMP DP  RH WIND       PRES   REMARKS
LA GUARDIA NY  CLOUDY    77  65  66 NE22G29   29.94F
6HR MIN TEMP:  71; 6HR MAX TEMP:  78; 6HR PCP: TRACE;

RALEIGH NC     FAIR      82  64  54 W8        29.96F
6HR MIN TEMP:  67; 6HR MAX TEMP:  83;

ATLANTA GA     FAIR      85  63  47 CALM      30.01F
6HR MIN TEMP:  67; 6HR MAX TEMP:  86;

NEW ORLEANS LA PTSUNNY   88  75  65 NE7       29.99F HX  97
6HR MIN TEMP:  75; 6HR MAX TEMP:  90;

OKLAHOMA CITY  FAIR      90  70  51 S22G29    29.82F HX  95
6HR MIN TEMP:  70; 6HR MAX TEMP:  90;

ALBUQUERQUE NM FAIR      76  35  22 SW10      30.05F
6HR MIN TEMP:  55; 6HR MAX TEMP:  76;

SALT LAKE CITY PTSUNNY   54  44  69 CALM      29.94R
6HR MIN TEMP:  49; 6HR MAX TEMP:  57; 6HR PCP:  0.11;

LOS ANGELES CA CLOUDY    70  61  73 W8        29.95S
6HR MIN TEMP:  67; 6HR MAX TEMP:  71;

BOISE ID       CLOUDY    53  40  61 N3        29.91F
6HR MIN TEMP:  47; 6HR MAX TEMP:  53; 6HR PCP:  0.06;

SEATTLE WA     PTSUNNY



USA.gov is the U.S. government's official web portal to all federal, state and local government web resources and services.